Simultaneous Nadir Overpasses (SNOs) Predictions

Prediction of SNOs between AQUA and NPP Satellite Orbit:

Table of predicted SNOs for the next 14.0 days since TLE Epoch: 8/24/2012
Index Date (AQUA) Time (AQUA) Lat,Lon (AQUA) SZA (AQUA ) Date (NPP) Time (NPP) Lat,Lon (NPP) SZA (NPP ) Distance(km) Time Diff (sec)
1 08/25/2012 07:10:47 -76.60, 133.11 93.74 08/25/2012 07:10:12 -76.59, 133.01 93.69 2.71 35
2 08/25/2012 07:59:52 77.56, -55.63 85.11 08/25/2012 08:00:34 77.56, -55.60 85.07 0.90 42
3 08/27/2012 23:27:06 -77.07,-109.34 93.42 08/27/2012 23:26:56 -77.07,-109.31 93.42 0.89 10
4 08/28/2012 00:16:18 77.69, 60.78 85.84 08/28/2012 00:17:26 77.68, 60.73 85.79 1.21 68
5 08/30/2012 14:54:15 76.64,-162.64 87.98 08/30/2012 14:53:14 76.65,-162.54 88.01 2.74 61
6 08/30/2012 15:43:28 -77.33, 7.53 92.84 08/30/2012 15:43:44 -77.33, 7.57 92.86 0.95 16
7 09/02/2012 07:10:41 76.75, -46.38 88.77 09/02/2012 07:10:07 76.74, -46.41 88.80 0.92 34
8 09/02/2012 07:59:55 -77.39, 123.65 92.00 09/02/2012 08:00:38 -77.38, 123.55 92.01 2.59 43
9 09/04/2012 23:27:05 76.93, 70.17 89.47 09/04/2012 23:26:58 76.93, 70.09 89.49 2.16 7




NCC Satellite Simultaneous Nadir Overpasses (SNOs) Prediction Service
